SCP
-0 -0 -0 -0 -0 -0 0 0 0 -0 -0 -0 -0 -0 -0 0 0 -0 -0 -0 -0 -0 -0 -0 -0 -0 0 -0 0 0 -0 0 0 0 -0 -0 -0 0 -0 0 0 0 0 0 0 0 -0
-0 -0 -0 -0 -0 -0 -0 -0 -0 -0 -0 -0 -0 -0 0 0 -0 -0 -0 -0 -0 -0 -0 -0 -0 -0 0 -0 0 -0 -0 0 -0 0 0 0 0 0 0 0 0 0 -0 -0 0 -0 0
-0 -0 -0 -0 -0 -0 -0 -0 -0 -0 -0 -0 -0 0 0 0 -0 -0 -0 -0 -0 -0 -0 -0 -0 -0 -0 0 0 -0 0 0 0 0 0 0 0 0 0 0 0 0 -0 -0 -0 -0 0
-0 -0 -0 -0 -0 -0 -0 -0 -0 -0 -0 -0 -0 0 0 0 -0 -0 -0 -0 -0 -0 -0 -0 -0 -0 0 -0 -0 0 0 0 0 0 -0 0 0 -0 0 0 0 0 0 0 -0 0 0
-0 -0 -0 -0 -0 -0 -0 -0 -0 -0 -0 -0 -0 0 0 0 0 -0 -0 -0 -0 -0 -0 0 -0 0 0 -0 0 0 0 0 0 0 0 0 0 0 0 0 0 0 0 0 0 0 0
-0 -0 -0 -0 -0 -0 -0 -0 -0 -0 -0 -0 -0 0 0 0 0 -0 -0 0 0 -0 -0 -0 -0 0 0 0 0 0 0 0 0 0 0 0 0 0 0 0 0 0 0 0 0 0 0
-0 -0 -0 -0 -0 -0 -0 -0 -0 -0 -0 -0 -0 0 0 0 0 0 0 -0 0 -0 0 0 0 0 -0 -0 -0 0 0 0 0 0 0 0 0 0 0 0 0 0 0 0 0 0 0
-0 -0 -0 -0 -0 -0 -0 -0 -0 -0 -0 -0 -0 -0 0 0 0 0 0 0 0 0 0 0 -0 -0 -0 -0 0 0 0 0 0 0 0 0 0 0 0 0 0 0 0 0 0 0 0
-0 -0 -0 -0 -0 -0 -0 -0 -0 -0 -0 -0 -0 -0 0 0 0 0 0 0 0 0 0 0 -0 -0 -0 -0 0 0 0 0 0 0 0 0 0 0 0 0 0 0 0 0 0 0 0
-0 -0 -0 -0 -0 -0 -0 -0 -0 -0 -0 -0 -0 -0 0 0 0 0 0 0 -0 -0 0 0 0 -0 -0 -0 0 -0 -0 0 0 0 0 0 0 0 0 0 0 0 0 0 0 0 0
-0 -0 -0 -0 -0 -0 -0 -0 -0 -0 -0 -0 -0 -0 0 0 0 0 0 0 0 -0 0 0 0 -0 -0 -0 0 0 0 -0 0 0 -0 0 0 0 0 -0 0 0 0 0 0 0 0
0 -0 -0 -0 -0 -0 -0 -0 -0 -0 -0 -0 -0 -0 0 0 0 0 0 0 0 0 0 0 0 0 0 0 0 0 0 0 0 0 0 0 0 0 -0 0 0 0 0 0 0 0 0
0 0 0 -0 -0 -0 -0 -0 -0 -0 -0 -0 -0 0 0 0 0 0 0 0 0 0 0 0 0 0 0 0 0 0 0 0 0 0 0 0 0 0 0 0 0 0 0 0 0 0 0
0 0 0 0 -0 -0 -0 -0 -0 -0 -0 -0 -0 0 0 0 0 0 0 0 0 0 0 0 0 0 0 0 0 0 0 0 0 0 0 0 0 0 0 0 0 0 0 0 0 0 0
0 0 0 0 0 -0 -0 -0 -0 -0 -0 -0 -0 0 0 0 -0 0 0 0 0 0 0 0 0 0 0 0 0 0 0 0 0 0 0 0 0 0 0 0 0 0 0 0 0 0 0
0 0 0 0 0 0 -0 -0 -0 -0 -0 -0 0 0 0 0 0 0 0 0 0 0 0 0 0 0 0 0 0 0 0 0 0 0 0 0 0 0 0 0 0 0 0 0 0 0 0
0 0 0 0 0 0 0 -0 -0 -0 -0 0 0 0 0 0 0 0 0 0 0 0 0 0 0 0 0 0 0 0 0 0 0 0 0 0 0 0 0 0 0 0 0 0 0 0 0
0 0 0 0 0 0 0 0 -0 -0 -0 0 0 0 0 0 0 0 0 0 0 0 0 0 0 0 0 0 0 0 0 0 0 0 0 0 0 0 0 0 0 0 0 0 0 0 0
0 0 0 0 0 0 0 0 0 0 0 0 0 0 0 0 0 0 0 0 0 0 0 0 0 0 0 0 0 0 0 0 0 0 0 0 0 0 0 0 0 0 0 0 0 0 0
0 0 0 0 0 0 0 0 0 0 0 -0 0 0 0 0 0 0 0 0 0 0 0 0 0 0 0 0 0 0 0 0 0 0 0 0 0 0 0 0 0 0 0 0 0 0 0
0 0 0 0 0 0 0 0 0 0 0 -0 0 0 0 0 0 0 0 0 0 0 0 0 0 0 0 0 0 0 0 0 0 0 0 0 0 0 0 0 0 0 0 0 0 0 0
0 0 0 0 0 0 0 0 0 0 0 0 0 0 0 0 0 0 0 0 0 0 0 0 0 0 0 0 0 0 0 0 0 0 0 0 0 0 0 0 0 0 0 0 0 0 0
0 0 0 0 0 0 0 0 0 0 0 0 0 0 0 0 0 0 0 0 0 0 0 0 0 0 0 0 0 0 0 0 0 0 0 0 0 0 0 0 0 0 0 0 0 0 0
0 0 0 0 0 0 0 0 0 0 0 0 0 0 0 0 0 0 0 0 0 0 0 0 0 0 0 0 0 0 0 0 0 0 0 0 0 0 0 0 0 0 0 0 0 0 0
0 0 0 0 0 0 0 0 0 0 0 0 0 0 0 0 0 0 0 0 0 0 0 0 0 0 0 0 0 0 0 0 0 0 0 0 0 0 0 0 0 0 0 0 0 0 0
0 0 0 0 0 0 0 0 0 0 0 0 0 0 0 0 0 0 0 0 0 0 0 0 0 0 0 0 0 0 0 0 0 0 0 0 0 0 0 0 0 0 0 0 0 0 0
0 0 0 0 0 0 0 0 0 0 0 0 0 0 0 0 0 0 0 0 0 0 0 0 0 0 0 0 0 0 0 0 0 0 0 0 0 0 0 0 0 0 0 0 0 0 0
0 0 0 0 0 0 0 0 0 0 0 0 0 0 0 0 0 0 0 0 0 0 0 0 0 0 0 0 0 0 0 0 0 0 0 0 0 0 0 0 0 0 0 0 0 0 0
0 0 0 0 0 0 0 0 0 0 0 0 0 0 0 0 0 0 0 0 0 0 0 0 0 0 0 0 0 0 0 0 0 0 0 0 0 0 0 0 0 0 0 0 0 0 0
Wind_Speed_500mb
54 54 54 50 42 35 27 18 14 12 14 18 22 23 21 20 19 17 16 15 14 12 9 14 20 12 7 21 14 17 23 19 20 28 27 16 27 13 12 9 10 13 7 11 4 7 5
54 54 54 55 50 42 34 23 15 13 14 18 23 22 20 18 16 14 12 11 10 7 6 12 19 14 18 15 12 16 15 21 20 22 24 24 15 20 14 8 8 11 25 17 12 8 11
56 54 54 55 54 49 41 30 19 12 13 15 20 21 18 14 11 10 8 7 7 6 3 8 16 15 16 10 10 12 17 21 18 14 13 14 14 8 12 10 11 18 21 26 32 15 10
55 56 54 53 54 53 48 39 26 14 11 13 15 17 14 10 9 7 5 4 8 9 2 4 13 11 9 11 9 12 18 24 20 19 13 15 18 18 9 11 9 8 4 6 18 19 12
54 54 55 55 53 52 51 45 34 21 11 10 11 12 11 9 8 6 4 3 5 6 4 2 8 11 6 12 12 14 18 25 19 26 32 29 28 15 7 10 8 8 11 12 3 21 5
53 54 53 53 53 51 50 48 41 28 15 8 9 10 9 8 9 8 5 3 4 6 2 5 4 8 9 11 11 13 16 19 20 19 18 22 13 17 13 3 7 6 8 8 7 13 20
52 53 53 52 51 52 49 47 45 33 21 11 7 9 10 11 13 12 9 10 3 1 3 5 4 3 5 8 9 9 16 21 23 27 8 16 19 16 14 5 6 9 10 9 5 6 7
49 51 52 52 50 49 50 47 44 39 25 14 8 10 11 14 17 18 13 12 13 5 5 1 6 4 2 3 7 8 14 12 22 16 3 7 19 14 9 14 15 9 8 6 3 6 2
47 49 51 52 51 48 47 47 44 40 28 17 10 13 16 17 19 18 20 18 12 9 2 3 3 3 5 4 4 7 11 7 16 24 26 22 9 11 19 21 15 9 6 1 4 3 9
44 48 50 51 51 50 46 44 43 39 30 17 8 15 15 17 12 12 14 13 13 9 4 5 2 4 12 8 6 5 8 4 7 11 10 14 7 19 22 13 5 4 4 7 10 6 12
42 45 48 50 51 51 49 43 41 38 31 19 4 13 10 7 9 8 10 11 10 6 5 1 4 7 11 5 10 5 9 7 7 6 4 7 14 15 19 6 5 5 5 3 7 11 5
39 43 46 49 51 52 51 47 39 37 31 22 4 11 8 5 4 11 17 9 3 1 5 3 4 2 7 6 4 4 4 12 7 7 17 9 5 7 6 4 7 6 2 5 4 3 9
36 40 44 47 50 51 51 49 43 35 30 24 9 10 9 2 4 14 11 8 4 3 4 5 4 5 10 9 6 8 8 8 2 2 3 5 6 1 8 2 7 13 7 4 4 4 6
33 36 40 44 48 51 52 51 47 38 31 22 10 7 9 7 8 14 3 3 6 1 3 3 3 11 8 7 6 6 5 5 11 4 4 1 6 12 13 7 5 9 7 3 8 6 14
31 34 37 41 45 49 52 52 50 42 32 18 8 13 9 1 9 12 1 4 5 4 1 2 5 4 4 2 3 3 5 4 5 7 2 2 6 3 17 9 5 4 5 4 1 2 7
30 32 35 39 42 46 50 52 50 43 32 16 7 10 4 4 8 7 6 4 2 3 1 2 4 4 3 6 2 2 2 3 6 7 4 5 3 1 4 2 20 9 9 1 4 7 11
29 31 34 37 40 44 48 51 51 45 33 19 4 8 2 4 6 4 4 4 4 8 3 7 4 5 4 2 3 3 4 5 4 7 11 5 1 5 5 4 4 5 5 6 2 4 7
27 30 32 35 38 40 44 48 49 47 37 21 2 3 2 1 4 4 4 4 2 4 11 8 8 6 3 2 3 3 4 4 5 6 5 4 4 1 2 5 5 2 5 4 2 3 9
26 28 30 33 35 37 40 43 45 45 40 30 9 4 6 5 3 3 1 4 4 3 6 4 5 4 3 4 3 3 5 4 5 4 8 10 1 1 3 6 5 8 6 5 3 1 15
28 28 28 29 32 34 36 39 41 40 36 26 8 2 7 9 10 4 4 4 6 8 7 9 7 6 6 3 4 7 7 4 4 6 9 10 5 7 8 8 2 7 12 16 11 7 22
32 29 28 29 30 31 32 34 36 36 31 17 10 5 4 4 7 5 1 2 8 8 5 4 4 4 8 6 4 5 5 5 4 8 6 2 6 8 14 16 11 16 20 19 21 29 17
33 35 30 29 30 29 29 30 31 32 27 13 6 3 4 2 5 2 2 7 10 5 7 5 8 9 5 6 7 10 9 6 6 6 4 2 3 3 8 9 13 20 22 21 26 22 21
32 35 36 30 30 29 25 26 27 28 27 12 12 7 3 2 2 3 2 3 8 13 3 3 14 10 6 3 5 4 8 7 6 8 8 6 8 5 6 5 13 21 12 9 5 8 13
36 37 38 35 31 30 25 21 22 22 21 16 15 6 2 1 2 2 3 4 6 10 10 9 15 7 8 7 10 11 9 4 5 4 4 10 9 4 6 5 7 7 6 3 7 16 22
49 42 41 38 34 31 29 21 16 15 14 13 12 9 4 3 4 6 2 1 4 6 6 9 7 10 13 7 4 6 4 4 9 12 9 6 7 5 5 6 17 6 8 7 7 20 23
45 46 45 41 38 34 30 27 19 13 10 9 9 8 5 4 7 4 2 1 5 5 5 4 10 11 6 4 3 6 8 3 8 6 8 9 4 5 6 6 8 5 11 5 7 9 13
46 44 43 42 41 38 32 30 25 18 12 10 10 7 6 7 8 9 7 5 7 5 3 3 8 7 6 4 5 7 6 1 7 9 10 7 5 14 9 11 11 8 14 12 6 11 18
44 45 42 39 38 40 35 32 29 25 18 13 14 14 10 8 17 13 14 12 8 9 6 10 8 6 4 7 6 6 6 5 5 2 6 10 11 6 5 8 9 20 11 9 13 17 24
48 41 43 42 38 39 35 35 33 29 24 17 16 16 16 16 15 16 18 25 21 15 10 19 3 6 8 6 4 5 5 6 5 5 4 8 8 5 14 6 4 24 21 21 29 27 32
Wind_Direction_500mb
45 42 41 41 41 41 44 56 77 90 100 112 123 127 122 114 108 105 105 109 110 106 74 45 41 55 92 100 79 53 45 42 51 50 55 64 64 74 83 94 91 81 51 44 22 21 75
45 42 41 41 41 41 42 50 70 89 101 119 129 129 122 114 109 105 104 112 122 119 70 44 34 63 97 88 77 53 57 51 37 44 50 63 69 107 95 87 64 81 84 56 18 327 51
44 42 39 39 40 40 41 45 58 85 102 118 134 135 127 118 112 110 104 123 151 158 50 31 29 56 78 87 87 61 50 34 24 37 34 59 57 98 126 117 97 136 94 59 26 351 76
43 42 39 38 37 38 39 41 48 69 104 119 133 145 143 136 128 125 114 137 174 193 267 6 12 34 78 73 95 65 44 47 40 55 80 90 79 85 65 112 58 108 80 101 17 3 43
41 40 38 36 36 35 36 37 40 52 86 123 136 144 147 140 129 125 123 151 185 211 215 294 5 23 58 75 71 43 32 32 52 65 88 104 70 66 73 124 116 39 110 105 102 24 334
39 38 37 35 34 34 33 33 34 40 59 102 142 148 143 127 111 93 105 126 144 139 152 268 330 97 61 32 37 51 31 14 51 121 76 55 61 59 43 78 99 97 114 89 98 18 76
35 35 35 33 32 32 31 30 30 32 40 65 121 145 136 123 100 74 116 115 70 77 337 98 91 61 66 37 50 24 29 40 60 65 77 33 62 40 0 27 95 111 108 115 154 56 99
30 31 31 30 30 30 29 27 27 28 33 45 84 126 130 127 93 80 96 85 62 37 332 111 217 260 324 59 42 51 33 63 48 52 114 85 41 355 79 94 78 96 109 58 249 28 153
25 26 27 27 26 27 26 25 23 24 29 38 81 116 121 119 104 93 83 62 32 355 58 10 206 193 140 135 63 46 31 73 79 69 66 86 49 67 77 65 80 61 89 160 280 4 86
19 20 20 22 23 24 23 23 22 18 21 30 79 124 120 125 103 103 60 30 14 8 82 1 111 169 166 145 70 66 61 66 64 111 99 73 28 63 67 64 339 235 343 290 279 250 282
12 14 15 15 17 19 21 18 19 17 13 18 65 145 127 133 105 62 350 334 341 327 111 70 86 145 160 141 140 66 51 59 86 87 214 94 60 58 57 46 315 53 342 324 302 244 273
5 6 8 10 10 12 16 16 13 14 9 5 347 183 159 128 31 348 325 300 260 215 117 94 33 98 123 37 64 119 96 78 104 81 64 106 84 34 357 95 44 310 210 80 87 189 239
359 360 2 4 5 6 9 13 10 7 9 1 7 196 195 197 355 346 346 149 133 88 304 20 40 23 88 25 53 30 33 39 3 171 141 110 57 6 12 42 47 21 352 331 207 226 308
352 355 356 358 1 0 2 6 8 4 8 5 32 130 176 227 345 352 32 88 86 160 55 65 63 78 83 9 49 42 82 114 50 64 111 221 196 6 356 28 348 39 4 309 293 285 308
345 349 352 353 356 357 357 0 5 4 3 11 70 120 122 32 339 1 97 77 138 179 189 99 95 83 96 65 109 94 61 88 32 8 134 174 132 78 61 41 345 87 74 15 242 237 264
338 341 346 349 352 355 355 356 359 4 359 9 114 139 104 20 347 353 86 124 106 265 52 80 103 355 111 14 155 93 129 45 107 44 9 128 189 58 87 267 55 67 122 207 35 305 295
331 336 340 345 348 353 354 353 355 0 2 356 140 152 74 356 351 64 110 153 144 39 126 44 111 102 90 66 51 84 71 65 44 56 74 102 84 132 219 48 119 144 125 77 358 256 278
324 329 334 339 344 349 353 353 354 355 2 6 49 122 2 264 46 41 127 156 116 82 68 77 87 95 122 91 72 108 131 45 12 125 82 63 121 102 34 316 290 249 149 121 167 231 246
313 320 327 333 339 345 350 353 355 356 2 6 2 342 15 164 147 113 193 110 92 107 49 95 106 68 63 111 132 129 110 65 44 110 159 172 56 9 169 158 178 239 193 147 121 203 245
301 309 317 325 332 340 347 350 353 356 360 1 3 343 26 69 82 110 139 134 115 64 85 82 115 126 119 119 38 152 142 50 35 95 115 133 146 219 249 295 128 224 223 211 239 251 285
291 296 305 314 322 330 341 348 351 355 360 5 26 62 46 6 50 42 16 148 154 163 97 109 101 159 157 156 154 181 170 151 84 144 80 145 237 205 253 253 230 257 260 263 250 273 270
284 289 295 303 311 320 334 345 351 353 2 27 50 44 21 51 327 294 341 206 202 152 162 176 156 149 148 172 210 197 180 209 198 139 122 40 204 218 269 275 243 260 267 273 278 279 264
275 281 285 291 299 306 322 336 347 356 9 43 34 22 28 8 42 216 225 207 215 156 82 164 156 136 188 205 164 162 181 125 148 174 153 173 162 189 261 351 316 276 273 210 265 244 283
275 275 276 281 287 293 303 321 340 355 6 21 19 10 335 194 251 245 310 284 217 195 150 134 148 152 156 149 112 87 80 98 182 188 166 147 151 190 290 303 252 78 94 149 252 284 279
273 269 271 272 274 279 286 296 316 337 350 351 356 11 324 262 240 249 204 125 125 124 88 146 156 154 160 155 135 141 145 168 110 37 191 192 157 178 261 239 300 179 192 194 190 282 300
269 269 268 267 269 268 273 279 286 300 315 324 316 330 326 290 214 220 254 276 192 149 127 109 143 154 159 96 137 210 210 175 172 133 83 121 79 227 167 264 268 114 175 165 142 274 203
258 261 267 270 264 264 263 266 268 273 281 289 284 285 303 276 259 212 201 202 173 140 142 170 178 180 165 148 188 210 210 253 210 196 176 167 175 225 219 246 274 187 156 154 283 307 310
257 254 259 260 262 260 258 256 256 259 261 264 267 262 265 270 276 248 231 212 191 187 185 161 153 193 127 178 195 183 211 175 219 184 196 192 175 193 172 229 266 163 139 203 278 285 300
251 255 250 250 256 262 255 249 249 249 249 252 261 260 255 262 266 278 261 239 238 236 205 183 239 162 163 121 188 143 182 179 187 230 174 212 214 189 203 239 159 195 240 268 287 285 299
Wind_Speed_850mb
54 54 54 50 42 35 27 18 14 12 14 18 22 23 21 20 19 17 16 15 14 12 9 14 20 12 7 21 14 17 23 19 20 28 27 16 27 13 12 9 10 13 7 11 4 7 5
54 54 54 55 50 42 34 23 15 13 14 18 23 22 20 18 16 14 12 11 10 7 6 12 19 14 18 15 12 16 15 21 20 22 24 24 15 20 14 8 8 11 25 17 12 8 11
56 54 54 55 54 49 41 30 19 12 13 15 20 21 18 14 11 10 8 7 7 6 3 8 16 15 16 10 10 12 17 21 18 14 13 14 14 8 12 10 11 18 21 26 32 15 10
55 56 54 53 54 53 48 39 26 14 11 13 15 17 14 10 9 7 5 4 8 9 2 4 13 11 9 11 9 12 18 24 20 19 13 15 18 18 9 11 9 8 4 6 18 19 12
54 54 55 55 53 52 51 45 34 21 11 10 11 12 11 9 8 6 4 3 5 6 4 2 8 11 6 12 12 14 18 25 19 26 32 29 28 15 7 10 8 8 11 12 3 21 5
53 54 53 53 53 51 50 48 41 28 15 8 9 10 9 8 9 8 5 3 4 6 2 5 4 8 9 11 11 13 16 19 20 19 18 22 13 17 13 3 7 6 8 8 7 13 20
52 53 53 52 51 52 49 47 45 33 21 11 7 9 10 11 13 12 9 10 3 1 3 5 4 3 5 8 9 9 16 21 23 27 8 16 19 16 14 5 6 9 10 9 5 6 7
49 51 52 52 50 49 50 47 44 39 25 14 8 10 11 14 17 18 13 12 13 5 5 1 6 4 2 3 7 8 14 12 22 16 3 7 19 14 9 14 15 9 8 6 3 6 2
47 49 51 52 51 48 47 47 44 40 28 17 10 13 16 17 19 18 20 18 12 9 2 3 3 3 5 4 4 7 11 7 16 24 26 22 9 11 19 21 15 9 6 1 4 3 9
44 48 50 51 51 50 46 44 43 39 30 17 8 15 15 17 12 12 14 13 13 9 4 5 2 4 12 8 6 5 8 4 7 11 10 14 7 19 22 13 5 4 4 7 10 6 12
42 45 48 50 51 51 49 43 41 38 31 19 4 13 10 7 9 8 10 11 10 6 5 1 4 7 11 5 10 5 9 7 7 6 4 7 14 15 19 6 5 5 5 3 7 11 5
39 43 46 49 51 52 51 47 39 37 31 22 4 11 8 5 4 11 17 9 3 1 5 3 4 2 7 6 4 4 4 12 7 7 17 9 5 7 6 4 7 6 2 5 4 3 9
36 40 44 47 50 51 51 49 43 35 30 24 9 10 9 2 4 14 11 8 4 3 4 5 4 5 10 9 6 8 8 8 2 2 3 5 6 1 8 2 7 13 7 4 4 4 6
33 36 40 44 48 51 52 51 47 38 31 22 10 7 9 7 8 14 3 3 6 1 3 3 3 11 8 7 6 6 5 5 11 4 4 1 6 12 13 7 5 9 7 3 8 6 14
31 34 37 41 45 49 52 52 50 42 32 18 8 13 9 1 9 12 1 4 5 4 1 2 5 4 4 2 3 3 5 4 5 7 2 2 6 3 17 9 5 4 5 4 1 2 7
30 32 35 39 42 46 50 52 50 43 32 16 7 10 4 4 8 7 6 4 2 3 1 2 4 4 3 6 2 2 2 3 6 7 4 5 3 1 4 2 20 9 9 1 4 7 11
29 31 34 37 40 44 48 51 51 45 33 19 4 8 2 4 6 4 4 4 4 8 3 7 4 5 4 2 3 3 4 5 4 7 11 5 1 5 5 4 4 5 5 6 2 4 7
27 30 32 35 38 40 44 48 49 47 37 21 2 3 2 1 4 4 4 4 2 4 11 8 8 6 3 2 3 3 4 4 5 6 5 4 4 1 2 5 5 2 5 4 2 3 9
26 28 30 33 35 37 40 43 45 45 40 30 9 4 6 5 3 3 1 4 4 3 6 4 5 4 3 4 3 3 5 4 5 4 8 10 1 1 3 6 5 8 6 5 3 1 15
28 28 28 29 32 34 36 39 41 40 36 26 8 2 7 9 10 4 4 4 6 8 7 9 7 6 6 3 4 7 7 4 4 6 9 10 5 7 8 8 2 7 12 16 11 7 22
32 29 28 29 30 31 32 34 36 36 31 17 10 5 4 4 7 5 1 2 8 8 5 4 4 4 8 6 4 5 5 5 4 8 6 2 6 8 14 16 11 16 20 19 21 29 17
33 35 30 29 30 29 29 30 31 32 27 13 6 3 4 2 5 2 2 7 10 5 7 5 8 9 5 6 7 10 9 6 6 6 4 2 3 3 8 9 13 20 22 21 26 22 21
32 35 36 30 30 29 25 26 27 28 27 12 12 7 3 2 2 3 2 3 8 13 3 3 14 10 6 3 5 4 8 7 6 8 8 6 8 5 6 5 13 21 12 9 5 8 13
36 37 38 35 31 30 25 21 22 22 21 16 15 6 2 1 2 2 3 4 6 10 10 9 15 7 8 7 10 11 9 4 5 4 4 10 9 4 6 5 7 7 6 3 7 16 22
49 42 41 38 34 31 29 21 16 15 14 13 12 9 4 3 4 6 2 1 4 6 6 9 7 10 13 7 4 6 4 4 9 12 9 6 7 5 5 6 17 6 8 7 7 20 23
45 46 45 41 38 34 30 27 19 13 10 9 9 8 5 4 7 4 2 1 5 5 5 4 10 11 6 4 3 6 8 3 8 6 8 9 4 5 6 6 8 5 11 5 7 9 13
46 44 43 42 41 38 32 30 25 18 12 10 10 7 6 7 8 9 7 5 7 5 3 3 8 7 6 4 5 7 6 1 7 9 10 7 5 14 9 11 11 8 14 12 6 11 18
44 45 42 39 38 40 35 32 29 25 18 13 14 14 10 8 17 13 14 12 8 9 6 10 8 6 4 7 6 6 6 5 5 2 6 10 11 6 5 8 9 20 11 9 13 17 24
48 41 43 42 38 39 35 35 33 29 24 17 16 16 16 16 15 16 18 25 21 15 10 19 3 6 8 6 4 5 5 6 5 5 4 8 8 5 14 6 4 24 21 21 29 27 32
Wind_Direction_850mb
45 42 41 41 41 41 44 56 77 90 100 112 123 127 122 114 108 105 105 109 110 106 74 45 41 55 92 100 79 53 45 42 51 50 55 64 64 74 83 94 91 81 51 44 22 21 75
45 42 41 41 41 41 42 50 70 89 101 119 129 129 122 114 109 105 104 112 122 119 70 44 34 63 97 88 77 53 57 51 37 44 50 63 69 107 95 87 64 81 84 56 18 327 51
44 42 39 39 40 40 41 45 58 85 102 118 134 135 127 118 112 110 104 123 151 158 50 31 29 56 78 87 87 61 50 34 24 37 34 59 57 98 126 117 97 136 94 59 26 351 76
43 42 39 38 37 38 39 41 48 69 104 119 133 145 143 136 128 125 114 137 174 193 267 6 12 34 78 73 95 65 44 47 40 55 80 90 79 85 65 112 58 108 80 101 17 3 43
41 40 38 36 36 35 36 37 40 52 86 123 136 144 147 140 129 125 123 151 185 211 215 294 5 23 58 75 71 43 32 32 52 65 88 104 70 66 73 124 116 39 110 105 102 24 334
39 38 37 35 34 34 33 33 34 40 59 102 142 148 143 127 111 93 105 126 144 139 152 268 330 97 61 32 37 51 31 14 51 121 76 55 61 59 43 78 99 97 114 89 98 18 76
35 35 35 33 32 32 31 30 30 32 40 65 121 145 136 123 100 74 116 115 70 77 337 98 91 61 66 37 50 24 29 40 60 65 77 33 62 40 0 27 95 111 108 115 154 56 99
30 31 31 30 30 30 29 27 27 28 33 45 84 126 130 127 93 80 96 85 62 37 332 111 217 260 324 59 42 51 33 63 48 52 114 85 41 355 79 94 78 96 109 58 249 28 153
25 26 27 27 26 27 26 25 23 24 29 38 81 116 121 119 104 93 83 62 32 355 58 10 206 193 140 135 63 46 31 73 79 69 66 86 49 67 77 65 80 61 89 160 280 4 86
19 20 20 22 23 24 23 23 22 18 21 30 79 124 120 125 103 103 60 30 14 8 82 1 111 169 166 145 70 66 61 66 64 111 99 73 28 63 67 64 339 235 343 290 279 250 282
12 14 15 15 17 19 21 18 19 17 13 18 65 145 127 133 105 62 350 334 341 327 111 70 86 145 160 141 140 66 51 59 86 87 214 94 60 58 57 46 315 53 342 324 302 244 273
5 6 8 10 10 12 16 16 13 14 9 5 347 183 159 128 31 348 325 300 260 215 117 94 33 98 123 37 64 119 96 78 104 81 64 106 84 34 357 95 44 310 210 80 87 189 239
359 360 2 4 5 6 9 13 10 7 9 1 7 196 195 197 355 346 346 149 133 88 304 20 40 23 88 25 53 30 33 39 3 171 141 110 57 6 12 42 47 21 352 331 207 226 308
352 355 356 358 1 0 2 6 8 4 8 5 32 130 176 227 345 352 32 88 86 160 55 65 63 78 83 9 49 42 82 114 50 64 111 221 196 6 356 28 348 39 4 309 293 285 308
345 349 352 353 356 357 357 0 5 4 3 11 70 120 122 32 339 1 97 77 138 179 189 99 95 83 96 65 109 94 61 88 32 8 134 174 132 78 61 41 345 87 74 15 242 237 264
338 341 346 349 352 355 355 356 359 4 359 9 114 139 104 20 347 353 86 124 106 265 52 80 103 355 111 14 155 93 129 45 107 44 9 128 189 58 87 267 55 67 122 207 35 305 295
331 336 340 345 348 353 354 353 355 0 2 356 140 152 74 356 351 64 110 153 144 39 126 44 111 102 90 66 51 84 71 65 44 56 74 102 84 132 219 48 119 144 125 77 358 256 278
324 329 334 339 344 349 353 353 354 355 2 6 49 122 2 264 46 41 127 156 116 82 68 77 87 95 122 91 72 108 131 45 12 125 82 63 121 102 34 316 290 249 149 121 167 231 246
313 320 327 333 339 345 350 353 355 356 2 6 2 342 15 164 147 113 193 110 92 107 49 95 106 68 63 111 132 129 110 65 44 110 159 172 56 9 169 158 178 239 193 147 121 203 245
301 309 317 325 332 340 347 350 353 356 360 1 3 343 26 69 82 110 139 134 115 64 85 82 115 126 119 119 38 152 142 50 35 95 115 133 146 219 249 295 128 224 223 211 239 251 285
291 296 305 314 322 330 341 348 351 355 360 5 26 62 46 6 50 42 16 148 154 163 97 109 101 159 157 156 154 181 170 151 84 144 80 145 237 205 253 253 230 257 260 263 250 273 270
284 289 295 303 311 320 334 345 351 353 2 27 50 44 21 51 327 294 341 206 202 152 162 176 156 149 148 172 210 197 180 209 198 139 122 40 204 218 269 275 243 260 267 273 278 279 264
275 281 285 291 299 306 322 336 347 356 9 43 34 22 28 8 42 216 225 207 215 156 82 164 156 136 188 205 164 162 181 125 148 174 153 173 162 189 261 351 316 276 273 210 265 244 283
275 275 276 281 287 293 303 321 340 355 6 21 19 10 335 194 251 245 310 284 217 195 150 134 148 152 156 149 112 87 80 98 182 188 166 147 151 190 290 303 252 78 94 149 252 284 279
273 269 271 272 274 279 286 296 316 337 350 351 356 11 324 262 240 249 204 125 125 124 88 146 156 154 160 155 135 141 145 168 110 37 191 192 157 178 261 239 300 179 192 194 190 282 300
269 269 268 267 269 268 273 279 286 300 315 324 316 330 326 290 214 220 254 276 192 149 127 109 143 154 159 96 137 210 210 175 172 133 83 121 79 227 167 264 268 114 175 165 142 274 203
258 261 267 270 264 264 263 266 268 273 281 289 284 285 303 276 259 212 201 202 173 140 142 170 178 180 165 148 188 210 210 253 210 196 176 167 175 225 219 246 274 187 156 154 283 307 310
257 254 259 260 262 260 258 256 256 259 261 264 267 262 265 270 276 248 231 212 191 187 185 161 153 193 127 178 195 183 211 175 219 184 196 192 175 193 172 229 266 163 139 203 278 285 300
251 255 250 250 256 262 255 249 249 249 249 252 261 260 255 262 266 278 261 239 238 236 205 183 239 162 163 121 188 143 182 179 187 230 174 212 214 189 203 239 159 195 240 268 287 285 299